星链-36686(STARLINK-36686)

导读

STARLINK-36686(NORAD编号68719)是SpaceX星链(Starlink)星座中的一颗低轨互联网通信卫星,隶属于SpaceX公司主导的星链卫星互联网项目。星链项目旨在构建全球覆盖的低轨卫星互联网系统,为全球提供低成本、高带宽的互联网接入服务。 该卫星运行于近地轨道,作为星链星座的组成部分,遵循SpaceX整体星座部署规划,2026年SpaceX计划将包含大量星链卫星在内的4400颗卫星轨道高度从550公里降至480公里,以提升太空安全,减少太空碎片风险,STARLINK-36686也将遵循相关轨道调整安排,服务于全球卫星互联网通信网络。

基本信息
目录编号:
68719
目录名称:
STARLINK-36686
国际标识:
2026-081W
轨道中心:
EARTH
卫星名称:
星链-36686
卫星全名:
星链-36686(STARLINK-36686)
卫星状态:
在轨 (已飞行143 天)
发射日期:
2026-04-14 UTC
国别 :
美国 (US)
星等 :
--
轨道信息
数据来源 国际轨道数据
星历时间: 2026-09-03T20:29:12+0800
22小时前
查看轨道信息
半长轴: 6840.849km
偏心率: 0.0000891
轨道倾角: 53.159°
近地点辐角 122.992°
升交点赤经 284.947°
平近点角 237.117°
近地点: 462.102km
远地点: 463.322km
周期: 93.848分钟
每日圈数: 15.343971
详细信息
固有亮度:
5
最大亮度:
2.5
卫星平台:
Starlink V1.0
覆盖范围:
全球
运营商:
太空探索技术公司
运营商所在国:
美国
制造商(研发单位):
太空探索技术公司
制造商所在国:
美国
使用方式:
暂无
卫星简介
Starlink 计划是 SpaceX 推出的全球卫星互联网项目,通过发射低轨道卫星,为全球尤其是偏远地区提供高速、低延迟的互联网服务。自 2019 年起,Starlink 已部署数千颗卫星,旨在缩小全球数字鸿沟,推动互联网普及。该项目还为军事、航空等行业提供通信支持,带来广泛经济效益。
2D轨道图
3D轨道图
轨道高度分析图
轨道倾角分析图
轨道综合分析图
查看轨道综合分析图